COSMOS 2499 DEB

Satellite information

Favourite Embed

Satellite Type and Status

DEBRISIN ORBIT

Key statistics

Satellite COSMOS 2499 DEB at a glance.

Uptime

4223

Days in orbit

Revolutions

≈ 12.8

Per day

Orbit

LEO

Low Earth Orbit

Inclination

82.5

Latest

Satellite identification and parameters

Extended collection of information and parameters for COSMOS 2499 DEB.

Object identification

Identified? True

Debris? True

Object name: COSMOS 2499 DEB

International designator: 2014-028AB

Object number (NORAD): 49944

Object ID (CCSDS): 49944

Country: COMMONWEALTH OF INDEPENDENT STATES (CIS)

Current information (Y/N): Y

RCS size: SMALL

Orbital parameters

Period: 112.328 minutes

Inclination: 82.4526 deg

SMA: 7711.739 km

Apoapsis: 1503.745 km

Periapsis: 1163.463 km

RAAN: 26.7824 deg

Eccentricy: 0.02206263

Argument of periapsis: 111.5847 deg

Mean anomaly: 250.8921 deg

Mean motion: 12.81959457 rev/day

Mean motion (dot): -0.00001404 rev/day2

B* drag term: -0.0054732736 1/REarth

Two-line elements (TLE)

Creation date: Dec. 8, 2025, 6:20 p.m.

Reference frame: TEME

Reference center: EARTH

Epoch: Dec. 8, 2025, 9:44 a.m. UTC

TLE line 0: 0 COSMOS 2499 DEB

TLE line 1: 1 49944U 14028AB 25342.40623758 -.00001404 00000-0 -54733-2 0 9991

TLE line 2: 2 49944 82.4526 26.7824 0220626 111.5847 250.8921 12.81959457190573

Live tracking on map

Real-time ground track for satellite COSMOS 2499 DEB.

In-orbit conjunctions

A list of the most updated potential collisions computed for object COSMOS 2499 DEB.

Target Orbit TCA Probability of collision Miss distance Type
COSMOS 1479 LEO 2025-07-03 08:18:07 0.0001156771 690.0 (m) PAYLOAD
SL-8 R/B LEO 2024-10-04 11:16:33 0.002804421 56.0 (m) ROCKET BODY
COSMOS 450 LEO 2024-09-15 15:59:48 0.0002824716 478.0 (m) PAYLOAD

Associated space launch

Classified payload for Russia

COSMOS 2499 DEB was lifted into orbit during the mission ‘Rokot / Briz-KM | 3x Strela-3M (Kosmos 2496, Kosmos 2497, Kosmos 2498) & Kosmos 2499’, on board a Rokot/Briz-KM space rocket.

The launch took place on May 23, 2014, 5:27 a.m. from 133/3 (133L).

For more information about the launch, click the button.

Launch to space Rokot / Briz-KM | 3x Strela-3M (Kosmos 2496, Kosmos 2497, Kosmos 2498) & Kosmos 2499
Rokot / Briz-KM | 3x Strela-3M (Kosmos 2496, Kosmos 2497, Kosmos 2498) & Kosmos 2499

Agency: N/A

Status: Launch Successful

Launch date: May 23, 2014, 5:27 a.m. UTC

Rocket: Rokot/Briz-KM

Launch pad: 133/3 (133L)

Location: Plesetsk Cosmodrome, Russian Federation

...

Latest news about this satellite

There are no fresh news available about this satellite. Check back as we update our databases every day.


Newsletter sign-up

Weekly statistics, charts and insights to help you stay on top of the space industry.